LEO 3

Satellite information

Favourite Embed

Satellite Type and Status

PAYLOADIN ORBIT

Key statistics

Satellite LEO 3 at a glance.

Uptime

829

Days in orbit

Revolutions

≈ 13.7

Per day

Orbit

SSO

Sun Synchronous Orbit

Inclination

99.5

Latest

Satellite identification and parameters

Extended collection of information and parameters for LEO 3.

Object identification

Identified? True

Debris? False

Object name: LEO 3

International designator: 2023-100G

Object number (NORAD): 57392

Object ID (CCSDS): 57392

Country: CANADA (CA)

Current information (Y/N): Y

RCS size: MEDIUM

Orbital parameters

Period: 105.234 minutes

Inclination: 99.5383 deg

SMA: 7383.517 km

Apoapsis: 1018.292 km

Periapsis: 992.473 km

RAAN: 58.8256 deg

Eccentricy: 0.00174846

Argument of periapsis: 263.2986 deg

Mean anomaly: 96.6169 deg

Mean motion: 13.68383459 rev/day

Mean motion (dot): 0.00000315 rev/day2

B* drag term: 0.0004199311 1/REarth

Two-line elements (TLE)

Creation date: Oct. 24, 2025, 2:48 a.m.

Reference frame: TEME

Reference center: EARTH

Epoch: Oct. 23, 2025, 10:49 p.m. UTC

TLE line 0: 0 LEO 3

TLE line 1: 1 57392U 23100G 25296.95070395 .00000315 00000-0 41993-3 0 9992

TLE line 2: 2 57392 99.5383 58.8256 0017485 263.2986 96.6169 13.68383459113338

Live tracking on map

Real-time ground track for satellite LEO 3.

In-orbit conjunctions

There are no conjunctions computed for LEO 3, at the moment. Check back to stay up to date, as we update our databases every day.

Go to all conjunctions

Associated space launch

The "Baby Come Back" mission includes NASA's Starling project, which consists of four CubeSats designed to test technologies for future swarm missions. Telesat contributes the LEO 3 demonstration satellite, ensuring continuity for customers and ecosystem vendor testing. Additionally, two 3U satellites carrying GNSS-RO payloads from SpinGlobal will replenish their constellation of over 100 multipurpose satellites.

LEO 3 was lifted into orbit during the mission ‘Electron | Baby Come Back (Rideshare)’, on board a Electron space rocket.

The launch took place on July 18, 2023, 1:27 a.m. from Rocket Lab Launch Complex 1B.

For more information about the launch, click the button.

Launch to space Electron | Baby Come Back (Rideshare)
Electron | Baby Come Back (Rideshare)

Agency: N/A

Status: Launch Successful

Launch date: July 18, 2023, 1:27 a.m. UTC

Rocket: Electron

Launch pad: Rocket Lab Launch Complex 1B

Location: Rocket Lab Launch Complex 1, Mahia Peninsula, New Zealand

...

Latest news about this satellite

News about space launch
NASA boosts science objectives for Starling swarm

NASA is expanding testing of distributed autonomy for its first satellite swarm, Starling. The post NASA boosts science objectives for Starling swarm appeared first on SpaceNews.

News about space launch
Launch Roundup: Rocket Lab conducts Electron reuse attempt, SpaceX flies two Starlink v2 missions

The week of July 16 through July 23 saw four more launches take place around the world, potentially increasing the orbital launch count to 108 so far in 2023. This included Rocket Lab’s launch of the “Baby Come Back” mission (which featured a first stage ...

News about space launch
Rocket Lab launches 7 satellites, recovers first stage booster

The ‘Baby Come Back’ mission successfully lifted off from Launch Complex 1B on the Mahia Peninsula in New Zealand at 01:27 UTC,...


Newsletter sign-up

Weekly statistics, charts and insights to help you stay on top of the space industry.